Regional Weather Roundup
Issued by NWS

Home | Current Version | Previous Version | Text Only | Print | Product List | Glossary On
Versions: 1 2 3 4 5 6 7 8 9 10 11 12 13 14 15 16 17 18 19 20 21 22 23 24 25 26 27 28 29 30 31 32 33 34 35 36 37 38 39 40 41 42 43 44 45 46 47 48 49 50
000
ASUS42 KKEY 281810
RWRKEY

FLORIDA REGIONAL WEATHER ROUNDUP FOR THE FLORIDA KEYS
NATIONAL WEATHER SERVICE KEY WEST FLORIDA
100 PM EST FRI NOV 28 2014

...SOUTH FLORIDA AND THE KEYS...

CITY           SKY/WX    TMP DP  RH WIND       PRES   REMARKS
FORT MYERS     SUNNY     63  37  38 NE12      30.24F
SW REGIONAL AP SUNNY     64  35  34 NE10      30.24F
NAPLES         SUNNY     66  38  35 N9        30.23F
MIAMI          MOSUNNY   70  50  49 N13G18    30.19F
WEST KENDALL   SUNNY     69  50  50 N13G21    30.19F
HOMESTEAD      SUNNY     70  51  50 N13       30.18F
MARATHON       SUNNY     67  54  63 N13G21    30.18F
BOCA CHICA NAS SUNNY     65  52  62 N16       30.19F
KEY WEST INTL  SUNNY     66  52  60 N17       30.20F

...INTERNATIONAL WEATHER...

CITY           SKY/WX    TMP DP  RH WIND       PRES   REMARKS
NASSAU BAHAMAS MOSUNNY   73  59  60 N12       30.11F
CANCUN MEXICO  PTSUNNY   75  59  57 N12       30.18F
COZUMEL MEXICO MOSUNNY   75  61  60 NE21      30.18F

ADJACENT COASTAL WATERS...

STATION/POSITION TIME  SKY/WX   TEMP    WIND        PRES    WAVE
                                AIR SEA DIR/SP/G            HT/PER
                 (UTC)          (F)     (DEG/KT/KT) (MB)    (FT/S)
PULASKI SHOAL LI 1700            62      30/ 20/ 22 1024.0F
SAND KEY         1736            62      20/ 20/ 24 1022.4F
SOMBRERO KEY     1800            65      10/ 19/ 20 1021.9F
LONG KEY         1754            64 67   10/ 14/ 16 1022.5F
MOLASSES REEF    1800            67 77   10/ 16/ 18 1021.3F
FOWEY ROCKS      1800            66 78  350/ 15/ 16 1022.0F
Buoy 42080       NOT AVBL

$$



USA.gov is the U.S. government's official web portal to all federal, state and local government web resources and services.